Temperature
23 23 24 23 20 20 23 24 25 26 26 26 26 25 23 22 22 21 21 20 20 20 20 19 19 19 19 19 19 19 19 19 19 19 19 18 18 18 18 18 18 18 18 18 18 19 19 19 19
24 24 24 23 20 21 23 24 25 27 26 26 25 25 23 22 22 21 20 20 20 20 20 20 19 19 19 19 19 19 19 19 19 19 18 18 18 18 18 18 18 18 18 18 18 18 19 18 18
24 24 23 21 22 22 24 25 25 27 28 27 25 25 23 22 22 21 21 20 20 20 20 20 19 19 19 19 19 19 19 19 19 19 18 18 18 18 18 18 18 18 18 18 18 18 18 18 18
24 24 23 21 24 24 25 25 26 27 27 26 25 24 23 22 22 22 21 20 20 20 20 20 20 19 19 19 19 19 19 19 19 19 18 18 18 18 18 18 18 18 18 18 18 18 18 18 18
24 23 21 22 24 26 25 26 27 26 26 25 24 22 22 22 22 21 20 20 20 20 20 20 20 19 19 19 19 19 19 18 18 18 18 18 18 18 18 18 18 18 18 18 18 18 18 18 18
24 21 21 22 24 26 27 28 28 26 26 25 24 22 21 22 21 21 20 20 20 20 20 20 19 19 19 19 19 19 18 18 18 18 18 18 18 18 18 18 18 18 18 18 18 18 18 18 18
23 20 21 22 23 26 27 28 27 26 25 25 24 22 21 21 21 21 21 20 20 20 20 20 20 19 19 19 19 19 18 18 18 18 18 18 18 18 18 18 18 18 18 18 18 18 18 18 18
24 20 21 21 23 25 28 29 29 28 27 26 25 22 21 22 21 21 21 21 20 20 20 20 20 19 19 19 19 19 18 18 18 18 18 18 18 18 18 18 18 18 18 18 18 18 18 18 18
24 20 20 21 23 25 27 28 29 29 28 27 26 25 24 22 21 21 21 20 20 20 20 20 20 19 19 19 19 19 18 18 18 18 18 18 18 18 18 18 18 18 18 18 17 17 17 17 17
23 21 22 23 23 24 26 28 29 27 26 25 25 25 23 22 22 21 21 21 21 20 20 20 20 20 19 19 19 19 19 19 18 18 18 18 18 18 18 18 18 18 18 17 17 17 17 17 17
23 22 23 24 25 26 26 28 29 27 24 24 24 24 23 22 22 22 22 22 22 21 21 20 20 20 20 19 19 19 19 19 18 18 18 18 18 18 18 18 18 18 17 17 17 17 17 17 17
24 24 24 25 26 27 27 28 28 28 28 27 26 25 23 23 23 23 23 22 22 21 21 21 20 20 20 20 19 19 19 19 19 18 18 18 18 17 17 18 18 18 17 17 17 17 17 17 17
24 25 26 27 27 27 28 28 28 28 28 27 26 25 24 24 24 24 24 23 22 22 22 21 21 21 21 20 20 20 19 19 19 18 18 18 17 17 17 17 17 17 17 17 17 17 17 17 17
25 25 26 26 27 27 27 27 27 28 28 27 26 25 25 25 25 24 24 23 23 22 22 22 21 21 21 21 20 20 20 19 19 19 18 18 17 17 17 17 17 17 17 17 17 17 17 17 17
25 24 24 25 25 25 26 25 25 27 27 26 26 26 26 26 25 25 24 24 23 23 23 23 22 22 21 21 21 20 20 20 19 19 18 18 18 17 17 17 17 17 17 17 17 17 17 17 17
24 23 22 23 22 24 24 23 24 25 26 26 26 26 26 26 26 26 25 25 24 24 23 23 23 22 22 21 21 21 20 20 19 19 18 18 18 17 17 17 17 17 17 17 17 17 17 17 17
21 21 21 22 22 22 22 22 22 23 24 24 25 25 26 26 26 26 26 25 25 24 24 23 23 23 22 21 21 21 20 20 20 19 19 18 18 18 17 17 17 17 17 17 17 17 17 17 17
20 20 20 21 20 21 20 20 21 22 22 23 24 25 25 26 26 26 26 26 25 25 24 23 23 23 22 21 21 20 20 20 19 19 19 19 18 18 18 17 17 17 17 17 17 17 17 17 17
20 20 20 20 20 20 20 20 20 21 21 22 23 24 25 26 26 26 26 26 25 25 24 24 23 22 22 21 21 20 20 20 19 19 19 19 18 18 18 18 17 17 17 17 17 17 17 17 17
21 20 20 20 20 21 19 20 20 20 21 22 23 23 25 25 26 26 26 26 25 25 24 24 23 23 22 21 21 21 20 20 19 19 19 18 18 18 18 18 17 17 17 17 17 17 17 17 16
21 20 20 19 19 20 19 18 19 20 21 22 22 23 24 25 25 26 26 26 25 25 24 24 23 22 22 21 21 20 19 19 19 19 18 18 18 18 18 17 17 17 17 17 17 17 17 17 17
20 20 20 19 18 17 18 16 17 18 18 19 20 22 23 25 25 25 25 25 25 24 24 23 23 22 22 21 20 20 20 19 19 19 18 18 17 17 17 17 17 17 17 17 17 17 17 17 17
20 20 19 19 17 16 17 16 16 16 17 18 19 20 22 24 24 24 24 24 23 23 23 22 22 22 21 21 20 20 19 19 18 18 18 18 17 17 17 17 17 17 17 17 17 17 17 17 17
20 19 18 16 15 16 16 16 16 15 16 16 17 18 19 21 22 22 22 22 22 22 22 22 22 21 21 21 20 20 19 19 18 18 18 18 17 17 17 17 17 17 16 16 16 16 16 16 16
19 17 16 16 15 15 17 17 15 15 16 16 16 16 17 19 20 21 21 22 22 22 22 21 21 21 21 21 20 19 19 18 18 18 18 17 17 17 17 17 16 16 16 16 16 16 16 16 16
18 17 16 16 15 16 17 16 15 16 16 16 16 16 16 17 18 19 20 21 22 22 22 22 22 22 21 20 20 19 19 18 18 18 17 17 17 17 16 16 16 16 16 16 16 16 16 16 15
17 16 16 15 16 16 16 16 15 16 15 16 16 15 15 16 17 17 18 19 21 21 21 22 21 21 21 20 19 19 18 18 18 17 17 17 17 16 16 16 16 16 16 16 15 15 15 15 15
16 15 13 14 15 15 15 15 14 14 14 15 15 15 15 16 16 17 18 18 20 20 21 21 21 21 20 20 19 19 18 18 18 17 17 17 17 16 16 16 16 16 15 15 15 15 15 15 15
14 14 13 13 13 14 14 14 14 13 14 14 15 15 15 16 16 17 18 18 19 20 20 20 20 20 20 20 19 19 18 18 18 18 17 17 17 16 16 16 16 16 15 15 15 15 15 14 14
15 13 12 12 13 13 13 13 13 13 14 14 14 15 16 16 17 17 18 19 19 20 20 20 20 20 20 19 19 18 18 18 18 18 17 17 16 16 16 16 16 16 15 15 15 15 14 14 14
Wind_Speed
7 4 2 3 6 6 3 2 4 4 5 5 9 11 8 5 4 4 5 14 16 15 14 16 16 15 14 13 13 13 13 13 12 12 13 13 13 12 12 11 11 11 12 12 12 12 11 11 10
4 2 3 4 6 4 0 2 6 4 7 10 9 8 7 5 5 7 7 14 17 15 14 15 16 15 14 13 13 13 12 12 12 12 12 13 13 12 11 11 11 11 11 12 12 12 11 10 10
4 1 3 4 3 5 5 5 6 3 7 8 5 5 7 6 5 6 12 18 16 13 14 15 16 15 14 13 12 12 12 11 11 11 12 12 12 12 11 11 11 11 11 11 11 11 10 10 10
2 4 5 4 1 6 8 7 6 5 6 6 7 6 5 4 5 10 18 18 16 13 14 15 16 14 13 13 12 12 12 11 11 11 12 12 12 11 11 10 10 10 10 10 10 9 8 8 8
3 4 6 4 3 3 5 5 7 7 5 5 8 6 4 3 11 18 18 16 15 12 12 15 16 14 13 13 12 12 12 12 12 12 12 12 12 11 10 10 10 10 10 9 8 7 6 6 7
4 5 4 4 6 2 1 3 6 6 7 8 8 7 3 5 11 15 16 14 14 14 12 14 16 15 13 13 12 12 12 12 12 13 13 12 12 11 10 9 9 9 9 9 7 5 4 3 5
4 4 2 5 5 2 3 6 8 8 8 8 10 7 6 6 10 14 15 14 13 12 10 10 12 13 13 13 12 12 13 13 13 13 13 13 12 11 9 9 9 9 9 8 6 4 2 2 4
5 5 3 5 5 4 2 4 7 9 6 8 8 9 8 9 11 14 14 13 12 10 10 9 10 11 11 12 13 13 13 14 14 14 14 13 12 11 10 9 8 9 8 7 5 3 1 2 3
5 5 2 3 4 6 2 3 2 5 6 4 4 7 12 16 13 14 11 8 10 11 9 9 8 9 11 11 12 13 14 15 14 14 14 13 11 10 9 8 8 8 7 6 4 2 1 2 4
4 4 6 6 5 5 4 1 4 6 7 5 7 9 16 17 16 16 15 13 13 12 12 10 10 9 9 10 11 11 11 12 12 12 12 11 10 9 9 9 9 8 7 5 4 3 3 4 5
5 5 5 5 7 5 3 3 1 8 6 10 16 17 19 16 16 17 17 16 16 15 14 13 11 10 9 6 9 8 8 10 11 12 12 11 9 8 8 7 6 5 5 4 3 4 5 4 2
2 5 5 6 7 3 2 2 2 4 9 16 21 23 22 19 19 18 18 17 14 15 16 15 14 12 9 8 7 7 6 7 7 11 13 10 5 5 6 5 6 5 5 4 4 2 4 4 4
3 4 4 3 4 5 5 4 3 4 6 16 18 19 21 20 18 17 17 17 15 16 16 16 15 14 12 10 7 7 6 7 9 11 13 12 6 6 5 5 6 7 7 5 3 2 1 3 7
4 5 6 6 6 4 5 7 4 6 7 17 19 19 19 20 19 15 15 16 16 17 17 17 17 16 14 12 10 9 8 9 10 10 13 15 12 8 6 5 5 6 8 7 3 3 3 4 5
4 6 8 6 5 5 4 8 6 7 3 12 18 18 18 18 17 17 20 19 18 19 19 18 18 17 16 14 12 10 9 9 7 9 14 15 15 12 8 7 6 6 10 7 3 4 4 5 6
5 4 5 6 8 7 2 8 7 8 4 5 11 13 15 16 17 18 19 19 18 18 19 19 18 17 17 14 12 9 8 8 7 10 11 14 15 14 10 8 7 8 8 4 5 4 4 4 5
5 3 4 5 6 6 2 6 7 8 8 4 4 7 11 13 14 16 18 20 20 19 19 19 17 18 17 14 11 9 7 8 7 8 8 10 12 12 9 7 7 8 5 5 6 4 4 4 5
3 3 4 5 6 5 3 6 9 7 6 6 7 6 6 10 14 14 16 19 19 18 18 18 15 16 14 10 7 6 6 6 5 6 7 9 9 9 7 5 7 6 5 5 5 6 4 4 5
3 3 5 5 3 3 5 8 9 7 5 6 7 8 8 8 9 8 12 17 18 16 16 15 13 13 11 8 8 6 6 5 5 5 7 8 8 8 6 6 6 6 6 7 7 5 5 3 3
2 3 4 5 4 4 6 10 10 8 7 7 8 9 10 9 7 6 8 13 17 17 15 15 13 13 12 9 7 5 4 3 4 4 5 7 7 7 7 7 7 7 6 7 7 6 5 3 3
3 4 5 5 4 4 5 8 7 6 5 7 8 9 9 9 8 6 7 11 13 13 14 13 11 11 10 9 7 5 4 3 2 3 4 6 7 7 6 6 6 7 7 7 7 8 8 5 2
5 6 4 2 2 4 2 6 9 7 10 10 10 8 7 7 6 7 10 10 11 10 10 10 10 10 10 10 9 8 6 5 6 4 5 5 5 6 7 6 7 6 6 7 8 8 6 7 5
7 4 3 2 1 3 2 3 8 8 11 14 14 13 8 5 7 10 12 14 13 12 11 10 10 9 9 8 9 8 5 4 3 3 4 5 5 5 6 6 7 7 6 7 8 7 6 6 6
2 4 4 4 4 2 4 4 5 7 12 16 18 18 15 7 4 9 11 14 12 11 10 9 9 8 8 8 8 8 7 6 4 4 4 4 3 4 6 6 7 7 7 7 8 8 8 7 6
6 5 4 5 3 5 4 2 2 7 12 14 16 18 18 12 5 7 10 11 12 11 10 8 9 8 7 7 6 6 7 6 6 5 5 4 2 3 4 5 6 6 7 7 7 8 8 8 8
5 3 4 4 4 4 3 1 2 7 10 13 15 15 18 18 13 7 4 7 10 12 11 11 10 8 7 6 5 5 5 4 3 5 4 4 3 3 3 4 5 5 6 6 6 6 7 6 7
6 3 2 3 3 3 4 1 3 12 16 17 17 18 19 16 14 11 7 3 3 6 8 9 9 7 6 5 4 4 5 5 4 4 3 3 2 2 3 3 4 4 4 5 6 5 6 7 7
5 3 4 3 1 3 2 3 7 14 17 17 16 16 16 14 12 10 6 4 3 2 4 7 7 7 6 6 5 5 6 6 6 5 4 4 3 2 3 3 3 3 3 4 4 4 4 6 6
6 5 3 1 1 1 0 2 6 11 13 13 13 13 12 11 9 6 4 6 6 4 2 4 6 6 6 6 5 6 6 6 6 5 5 4 3 4 4 4 4 4 3 3 4 3 4 5 5
3 2 2 1 0 0 1 1 7 11 11 11 11 11 12 11 9 7 4 5 7 5 3 5 6 6 6 5 5 6 6 5 5 5 5 5 5 4 4 4 4 4 4 4 4 3 4 4 5
Wind_Direction
296 299 124 84 52 54 96 157 114 54 50 62 85 93 94 83 101 128 143 149 141 150 161 160 156 150 143 137 132 129 127 125 123 122 122 121 118 112 105 102 99 95 92 89 87 87 87 89 90
314 309 100 62 79 82 63 173 103 98 123 119 93 98 94 85 103 111 120 142 144 150 156 158 158 153 148 143 139 135 132 130 128 127 127 126 122 116 111 108 105 101 97 94 91 90 89 88 88
300 286 83 64 114 154 171 196 155 134 120 124 98 72 95 127 124 127 145 143 143 148 152 158 158 155 152 149 146 142 139 137 136 134 133 129 126 122 117 113 109 106 102 99 96 94 92 90 87
9 35 50 59 210 200 179 197 168 128 94 96 103 67 62 128 142 134 142 143 144 148 151 158 158 157 156 154 152 149 146 145 144 142 138 133 130 127 122 118 115 113 109 107 103 97 92 87 82
78 63 38 357 288 206 189 186 153 135 118 101 98 85 48 48 117 133 143 144 144 146 151 158 158 158 158 157 156 155 153 152 150 147 143 140 136 132 127 123 123 121 119 117 113 105 96 84 76
54 62 51 332 310 298 131 115 113 102 110 112 107 108 115 134 126 138 144 146 144 147 152 157 159 159 159 159 159 159 157 157 154 151 148 145 142 137 132 130 130 128 128 129 129 123 106 77 65
93 71 27 311 299 298 170 121 108 119 140 151 135 109 133 164 145 142 143 142 144 148 150 151 158 159 160 161 161 160 160 160 158 155 154 150 147 142 139 138 138 136 138 142 146 144 118 45 39
115 91 17 318 299 281 205 125 130 134 147 139 130 134 159 184 152 140 141 142 145 148 154 155 155 156 156 160 162 162 162 163 161 159 157 154 151 148 147 147 148 147 149 152 157 158 117 13 16
93 92 156 258 286 285 293 94 130 111 104 90 114 145 160 159 145 138 140 141 152 158 161 163 163 159 157 159 165 164 165 166 164 163 162 156 151 150 152 159 162 161 160 161 171 196 304 344 3
99 138 196 210 231 263 297 171 147 90 88 81 89 110 144 154 153 154 160 165 169 171 173 172 173 168 164 167 156 159 163 165 163 164 161 157 159 163 168 174 174 176 177 182 200 243 290 322 351
156 182 213 240 243 254 285 292 159 126 142 164 153 153 158 165 167 168 173 177 180 177 176 178 178 175 172 160 155 160 161 163 167 171 168 165 169 178 175 179 188 195 202 214 240 262 278 279 305
240 232 211 234 246 256 267 300 299 183 186 176 164 162 167 173 177 179 180 183 181 178 181 179 178 176 175 163 166 168 168 175 181 186 181 171 170 172 179 188 201 214 226 235 249 251 258 234 207
280 282 289 284 278 258 271 275 257 241 177 162 165 166 174 180 184 185 185 184 180 182 181 179 177 175 173 167 173 175 179 186 193 193 190 181 174 179 185 195 205 221 231 238 247 247 204 124 129
271 288 292 296 307 298 268 278 272 249 177 161 172 180 184 187 187 184 184 184 182 184 182 179 179 177 173 176 179 182 186 190 195 196 194 188 184 184 188 196 203 221 230 234 217 184 150 122 120
310 327 321 321 325 309 306 288 270 284 250 179 183 190 193 195 190 187 187 185 184 184 183 181 181 178 178 181 183 184 188 189 195 200 199 192 188 190 190 196 203 213 224 223 183 161 127 113 114
341 354 320 329 359 329 290 257 284 328 328 225 205 203 203 205 200 195 189 186 183 180 182 184 184 181 183 184 185 185 188 187 196 199 197 194 190 188 189 194 203 206 203 180 160 151 125 116 121
4 332 300 318 2 346 357 264 304 342 354 321 260 232 222 218 212 203 191 187 184 181 180 183 184 182 185 183 182 183 181 185 189 191 192 195 195 190 186 192 200 196 176 168 166 155 144 138 136
291 307 303 304 327 345 342 291 301 321 351 331 311 297 259 236 226 211 194 187 184 182 180 182 180 179 177 171 167 168 175 183 182 184 190 192 197 195 189 192 195 187 173 171 163 152 147 145 147
203 244 273 269 285 320 292 287 288 292 305 307 310 307 289 259 250 226 195 184 181 180 181 179 174 173 165 164 165 167 181 186 190 195 193 193 192 190 188 199 195 187 182 179 162 145 144 133 123
200 263 274 275 293 302 284 281 274 261 248 251 270 278 280 274 268 250 191 178 178 178 179 177 175 170 167 168 166 163 156 171 190 195 194 199 196 194 197 199 197 191 184 178 169 148 139 142 137
248 235 246 265 317 335 323 305 297 294 293 285 267 254 258 255 238 212 176 169 164 167 170 170 162 154 151 147 131 114 98 94 144 204 211 210 202 198 198 198 199 196 185 184 180 164 151 157 165
247 232 210 236 2 304 360 300 300 320 332 331 319 286 251 243 217 169 147 137 134 132 131 133 132 134 138 142 150 154 164 177 198 199 209 215 205 199 197 190 194 194 192 189 189 177 165 155 164
217 211 175 178 174 304 287 230 297 348 348 343 344 339 319 256 180 151 139 128 120 118 116 119 120 124 133 139 150 153 157 176 181 187 204 214 213 207 198 191 191 192 194 196 193 182 174 169 169
120 61 43 54 77 302 253 200 314 1 346 347 355 357 356 353 123 128 122 118 114 113 115 119 123 130 138 140 147 156 164 171 176 195 209 215 208 205 202 196 198 196 195 196 196 186 184 189 180
23 65 13 346 356 257 260 174 37 3 7 3 2 3 2 11 50 107 119 123 124 125 128 137 144 145 149 147 158 171 176 178 191 202 205 202 203 208 204 193 198 200 199 194 189 189 192 189 189
302 155 185 232 238 282 313 205 106 1 0 6 11 12 17 17 16 27 90 120 135 144 151 158 157 156 158 160 176 188 183 174 191 201 191 191 198 210 201 187 193 200 196 192 187 192 198 193 198
347 348 238 190 228 254 282 0 47 360 1 4 7 11 13 9 11 13 14 33 144 154 158 161 158 157 165 166 169 180 170 165 171 169 165 173 184 184 163 161 168 180 184 186 183 197 204 199 202
25 7 38 63 229 245 309 37 359 347 343 346 355 360 356 355 1 2 359 325 287 208 179 167 162 169 169 161 158 160 163 164 161 150 156 159 159 143 135 135 139 142 152 169 179 191 193 195 201
19 28 29 93 132 187 323 51 353 328 323 328 340 342 339 340 334 324 325 301 294 289 228 194 175 174 173 168 163 158 163 162 155 156 169 167 162 159 157 156 149 148 149 151 159 174 173 186 198
58 48 62 106 1 49 131 41 333 318 318 327 331 334 337 329 316 298 267 260 270 272 249 215 194 185 184 168 163 173 170 163 166 174 182 180 176 178 179 172 169 170 164 157 158 165 167 182 196
Height
1499 1497 1496 1497 1500 1511 1511 1503 1495 1493 1492 1492 1491 1493 1498 1502 1505 1512 1508 1508 1511 1513 1515 1517 1519 1521 1522 1523 1524 1525 1526 1526 1527 1528 1528 1529 1529 1530 1530 1530 1531 1531 1531 1531 1531 1531 1531 1531 1531
1498 1497 1497 1497 1508 1522 1513 1500 1495 1491 1492 1493 1494 1495 1498 1502 1503 1505 1506 1509 1512 1513 1515 1517 1519 1521 1522 1523 1524 1525 1526 1527 1527 1528 1529 1529 1530 1530 1531 1531 1531 1531 1532 1532 1532 1532 1532 1532 1532
1498 1496 1498 1500 1509 1516 1508 1497 1492 1489 1490 1490 1494 1496 1499 1502 1503 1504 1506 1509 1512 1514 1515 1517 1519 1520 1522 1523 1524 1525 1526 1527 1528 1529 1529 1530 1530 1531 1531 1531 1531 1532 1532 1533 1533 1533 1533 1533 1534
1498 1498 1498 1505 1507 1500 1495 1491 1488 1489 1491 1491 1493 1498 1501 1503 1503 1504 1506 1510 1512 1514 1516 1517 1519 1520 1521 1523 1524 1525 1526 1527 1528 1529 1529 1530 1531 1531 1532 1532 1532 1532 1533 1533 1534 1534 1534 1535 1535
1498 1498 1504 1510 1503 1493 1488 1487 1487 1489 1491 1493 1494 1500 1503 1504 1504 1504 1507 1510 1512 1514 1516 1517 1519 1520 1521 1522 1523 1524 1525 1526 1527 1528 1529 1530 1531 1532 1532 1532 1533 1533 1534 1534 1535 1535 1536 1536 1536
1499 1500 1514 1517 1506 1493 1488 1487 1487 1489 1492 1494 1496 1500 1505 1506 1505 1506 1508 1511 1513 1514 1516 1517 1518 1520 1521 1522 1523 1524 1525 1526 1527 1528 1530 1531 1531 1532 1533 1533 1533 1534 1534 1535 1536 1536 1537 1537 1537
1500 1506 1516 1515 1508 1497 1489 1486 1487 1490 1492 1494 1495 1500 1505 1507 1507 1508 1510 1512 1514 1515 1516 1517 1518 1519 1520 1522 1523 1524 1525 1526 1527 1528 1530 1531 1532 1532 1533 1533 1534 1535 1535 1536 1536 1537 1537 1537 1538
1500 1507 1515 1514 1509 1499 1488 1486 1487 1488 1490 1493 1493 1497 1502 1505 1507 1509 1511 1513 1514 1515 1516 1517 1518 1519 1520 1521 1523 1524 1525 1526 1527 1529 1530 1531 1532 1532 1533 1534 1535 1535 1536 1537 1537 1537 1537 1538 1539
1500 1512 1520 1514 1507 1498 1489 1487 1487 1488 1490 1492 1492 1494 1497 1503 1506 1508 1511 1513 1514 1516 1516 1517 1518 1519 1520 1521 1522 1523 1525 1526 1527 1529 1530 1531 1532 1533 1534 1534 1535 1536 1537 1538 1538 1539 1539 1539 1540
1500 1512 1510 1503 1499 1494 1490 1487 1487 1489 1491 1493 1494 1496 1499 1501 1504 1506 1508 1510 1512 1514 1516 1517 1517 1518 1519 1520 1522 1523 1524 1526 1527 1528 1530 1531 1532 1533 1534 1535 1536 1537 1538 1539 1539 1540 1540 1540 1541
1498 1503 1500 1497 1494 1492 1490 1488 1486 1488 1493 1492 1492 1495 1498 1500 1502 1504 1505 1507 1509 1512 1514 1515 1517 1518 1519 1520 1521 1522 1524 1525 1527 1528 1530 1531 1532 1533 1534 1535 1536 1537 1538 1539 1540 1540 1541 1541 1541
1496 1495 1495 1494 1491 1490 1488 1487 1486 1485 1486 1487 1488 1490 1494 1497 1499 1501 1503 1505 1507 1509 1511 1513 1515 1517 1518 1519 1521 1522 1523 1524 1526 1527 1529 1530 1532 1533 1534 1535 1537 1538 1539 1540 1540 1540 1541 1541 1541
1494 1492 1491 1490 1489 1488 1486 1486 1486 1485 1484 1486 1488 1490 1491 1493 1495 1498 1500 1503 1505 1507 1509 1511 1513 1515 1517 1518 1520 1521 1522 1524 1525 1527 1528 1529 1531 1532 1534 1536 1537 1538 1539 1540 1541 1541 1541 1541 1542
1493 1491 1490 1488 1487 1487 1486 1484 1485 1483 1483 1485 1486 1487 1488 1490 1492 1495 1498 1500 1502 1504 1506 1508 1510 1513 1515 1517 1518 1520 1521 1523 1524 1526 1527 1528 1530 1532 1534 1536 1537 1538 1539 1540 1541 1542 1542 1542 1542
1492 1492 1490 1488 1487 1486 1486 1487 1484 1484 1483 1483 1484 1484 1485 1487 1489 1490 1492 1495 1498 1501 1503 1505 1507 1510 1513 1515 1517 1518 1520 1521 1523 1524 1526 1527 1528 1530 1533 1535 1536 1538 1539 1540 1541 1542 1543 1543 1543
1493 1497 1501 1493 1490 1487 1490 1495 1483 1482 1482 1482 1482 1482 1483 1484 1485 1486 1488 1491 1494 1497 1500 1502 1505 1507 1510 1512 1514 1516 1518 1519 1521 1523 1524 1526 1527 1529 1531 1532 1534 1536 1537 1539 1540 1541 1542 1543 1543
1504 1509 1506 1499 1494 1491 1491 1492 1484 1482 1481 1480 1480 1481 1481 1481 1481 1483 1485 1487 1490 1493 1496 1499 1501 1504 1506 1510 1512 1514 1516 1518 1519 1521 1522 1524 1525 1527 1529 1530 1532 1534 1535 1537 1538 1540 1541 1542 1543
1514 1512 1509 1505 1498 1494 1495 1493 1485 1482 1481 1480 1479 1479 1479 1478 1478 1479 1480 1483 1486 1490 1493 1496 1498 1501 1504 1507 1510 1512 1514 1515 1517 1519 1520 1522 1523 1525 1526 1528 1530 1532 1533 1535 1536 1538 1540 1541 1542
1506 1508 1509 1503 1496 1496 1496 1493 1485 1480 1479 1477 1477 1477 1475 1474 1475 1476 1477 1479 1482 1486 1490 1492 1495 1498 1501 1503 1506 1508 1510 1512 1514 1516 1518 1520 1521 1522 1523 1525 1527 1529 1530 1532 1534 1535 1537 1539 1540
1502 1507 1507 1501 1495 1495 1495 1491 1482 1478 1476 1475 1474 1473 1473 1471 1471 1472 1473 1475 1478 1481 1486 1489 1492 1494 1497 1500 1503 1506 1508 1510 1512 1513 1515 1517 1518 1519 1521 1522 1523 1525 1527 1528 1530 1532 1534 1536 1538
1501 1504 1504 1503 1498 1495 1497 1495 1485 1477 1475 1474 1471 1469 1469 1467 1467 1468 1469 1471 1474 1478 1482 1486 1489 1492 1496 1499 1501 1504 1506 1507 1509 1510 1511 1513 1514 1516 1517 1518 1520 1521 1523 1524 1526 1528 1530 1532 1534
1504 1495 1496 1499 1505 1510 1505 1514 1494 1485 1480 1474 1470 1466 1463 1462 1463 1464 1465 1468 1472 1477 1481 1485 1488 1491 1494 1497 1499 1501 1503 1504 1505 1506 1508 1510 1511 1512 1513 1515 1516 1517 1519 1520 1522 1524 1526 1528 1530
1494 1491 1494 1498 1505 1511 1507 1513 1503 1491 1488 1480 1474 1467 1462 1459 1459 1461 1463 1466 1472 1477 1482 1486 1489 1491 1493 1496 1497 1499 1500 1502 1503 1504 1505 1506 1507 1508 1509 1511 1512 1513 1514 1516 1518 1519 1521 1524 1526
1490 1494 1498 1504 1511 1520 1509 1513 1511 1504 1499 1488 1479 1471 1464 1459 1459 1461 1463 1466 1472 1478 1482 1486 1488 1490 1492 1494 1495 1496 1498 1499 1500 1501 1502 1503 1504 1505 1506 1507 1508 1509 1510 1512 1513 1515 1517 1519 1521
1495 1507 1521 1522 1526 1521 1504 1507 1513 1505 1499 1493 1485 1477 1469 1463 1462 1463 1465 1468 1472 1477 1481 1485 1488 1489 1490 1492 1493 1495 1496 1497 1499 1500 1501 1501 1502 1503 1503 1503 1504 1505 1506 1507 1509 1511 1512 1513 1516
1501 1505 1521 1528 1528 1518 1505 1509 1510 1503 1499 1493 1486 1480 1473 1469 1468 1468 1468 1469 1472 1476 1479 1483 1485 1487 1489 1490 1492 1493 1495 1496 1497 1498 1499 1499 1500 1500 1500 1501 1501 1501 1502 1503 1504 1505 1507 1509 1511
1505 1507 1506 1515 1515 1519 1513 1508 1505 1501 1497 1492 1488 1482 1478 1476 1474 1473 1473 1473 1475 1477 1479 1481 1484 1486 1488 1490 1491 1493 1494 1495 1496 1497 1497 1498 1498 1498 1498 1498 1498 1498 1499 1499 1500 1501 1503 1504 1505
1509 1510 1515 1519 1522 1524 1517 1515 1518 1509 1503 1496 1491 1487 1483 1479 1477 1477 1477 1478 1478 1480 1481 1483 1485 1486 1488 1489 1491 1493 1494 1495 1495 1496 1496 1496 1496 1497 1497 1496 1496 1496 1496 1497 1497 1498 1499 1500 1501
1515 1517 1518 1520 1520 1524 1526 1525 1518 1514 1508 1502 1496 1491 1485 1481 1479 1478 1479 1480 1480 1481 1482 1484 1485 1486 1488 1489 1491 1492 1493 1494 1495 1495 1495 1495 1495 1495 1495 1495 1495 1495 1495 1495 1495 1495 1495 1496 1497
1515 1518 1521 1525 1525 1522 1525 1530 1517 1514 1508 1503 1498 1492 1487 1482 1480 1478 1477 1478 1480 1480 1482 1483 1485 1486 1488 1490 1491 1492 1493 1493 1494 1494 1494 1494 1494 1495 1495 1495 1495 1494 1494 1494 1494 1493 1493 1494 1495